This is the latest recevied weather packets stored in our database for station/object F6DEV-13. If no packets are shown the sender has not sent any weather packets the latest 10 day(s).
| Time | Temp. | Humidity | Pressure | Rain* | Wind** | Luminosity | Snow |
|---|---|---|---|---|---|---|---|
| 1777725805 | 23.33° C | 49% | 1015 hPa | 0 mm | - | - | - |
| 1777725505 | 23.33° C | 48% | 1014 hPa | 0 mm | - | - | - |
| 1777725175 | 22.78° C | 47% | 1014 hPa | 0 mm | - | - | - |
| 1777724845 | 22.78° C | 50% | 1014 hPa | 0 mm | - | - | - |
| 1777724514 | 22.78° C | 52% | 1015 hPa | 0 mm | - | - | - |
| 1777724215 | 22.78° C | 53% | 1015 hPa | 0 mm | - | - | - |
| 1777723915 | 22.78° C | 51% | 1015 hPa | 0 mm | - | - | - |
| 1777723657 | 23.33° C | 52% | 1015 hPa | 0 mm | - | - | - |
| 1777723585 | 23.33° C | 52% | 1015 hPa | 0 mm | - | - | - |
| 1777723285 | 22.78° C | 52% | 1015 hPa | 0 mm | - | - | - |
| 1777722955 | 22.78° C | 54% | 1015 hPa | 0 mm | - | - | - |
| 1777722625 | 22.78° C | 55% | 1015 hPa | 0 mm | - | - | - |
| 1777722324 | 22.22° C | 57% | 1015 hPa | 0 mm | - | - | - |
| 1777721995 | 21.67° C | 55% | 1015 hPa | 0 mm | - | - | - |
| 1777721665 | 21.67° C | 55% | 1015 hPa | 0 mm | - | - | - |
| 1777721364 | 21.67° C | 56% | 1015 hPa | 0 mm | - | - | - |
| 1777721065 | 21.11° C | 56% | 1015 hPa | 0 mm | - | - | - |
| 1777720764 | 21.11° C | 57% | 1015 hPa | 0 mm | - | - | - |
| 1777720464 | 20.56° C | 56% | 1015 hPa | 0 mm | - | - | - |
| 1777720164 | 21.11° C | 56% | 1015 hPa | 0 mm | - | - | - |
| 1777719864 | 21.11° C | 56% | 1015 hPa | 0 mm | - | - | - |
| 1777719564 | 21.11° C | 57% | 1015 hPa | 0 mm | - | - | - |
| 1777719296 | 21.11° C | 57% | 1016 hPa | 0 mm | - | - | - |
| 1777719264 | 21.11° C | 57% | 1016 hPa | 0 mm | - | - | - |
| 1777718964 | 21.11° C | 57% | 1016 hPa | 0 mm | - | - | - |
* Rain latest hour (hover to see other rain measurements)
** Current wind speed in m/s (hover to see current wind gust speed)